Location: Newark
(44.3248°N, 23.7839°E)
Time: 00:05:13
(UTC+00:00)

DOVE 4 - Visible Passes

Search period start: 24 April 2024 00:00
Search period end: 04 May 2024 00:00
Orbit: 580 x 781 km, 97.7° (Epoch: 23 April)

Date Brightness Start Highest point End Pass type
(mag) Time Alt. Az. Time Alt. Az. Time Alt. Az.
24 Apr ? 19:55:31 10° NNE 19:59:18 56° ENE 19:59:18 56° ENE visible
24 Apr ? 21:34:20 10° NNW 21:36:49 15° WNW 21:37:45 14° WNW visible
25 Apr ? 18:55:39 10° NE 18:57:32 15° E 18:57:32 15° E visible
25 Apr ? 20:31:39 10° N 20:35:57 56° WNW 20:35:59 56° WNW visible
26 Apr ? 19:30:35 10° NNE 19:34:13 34° E 19:34:13 34° E visible
26 Apr ? 21:08:17 10° NNW 21:11:54 25° WNW 21:12:39 24° W visible
27 Apr ? 20:06:22 10° NNE 20:10:51 82° ESE 20:10:52 82° ESE visible
27 Apr ? 21:45:56 10° NW 21:47:39 12° WNW 21:49:19 10° W visible
28 Apr ? 19:05:58 10° NE 19:09:05 20° E 19:09:05 20° E visible
28 Apr ? 20:42:37 10° N 20:46:51 43° WNW 20:47:31 40° W visible
29 Apr ? 19:41:16 10° NNE 19:45:37 46° E 19:45:43 46° ESE visible
29 Apr ? 21:19:24 10° NNW 21:22:42 21° WNW 21:24:10 18° W visible
30 Apr ? 18:42:14 10° ENE 18:43:54 12° E 18:43:54 12° E visible
30 Apr ? 20:17:10 10° N 20:21:43 77° WNW 20:22:21 64° SW visible
01 May ? 19:16:23 10° NE 19:20:17 27° E 19:20:31 27° E visible
01 May ? 20:53:32 10° N 20:57:38 34° WNW 20:58:58 29° WSW visible
02 May ? 19:51:53 10° NNE 19:56:27 61° E 19:57:07 55° SE visible
02 May ? 21:30:30 10° NNW 21:33:24 17° WNW 21:35:33 13° W visible
03 May ? 18:51:57 10° NE 18:54:50 16° E 18:55:16 16° E visible
03 May ? 20:27:55 10° N 20:32:28 60° WNW 20:33:42 44° SW visible
